Flag for South Africa Weather past 2 weeks in Rustenburg, South Africa

Now
72 °F

Passing clouds.


Feels Like: 74 °F
Forecast: 65 / 83 °F
Wind: 3 mph from Southwest

Location: Lanseria Civ / Mil

Current Time: Dec 22, 2014 at 10:38:02 PM

Latest Report: Dec 22, 2014 at 10:00 PM


Visibility: N/A

Pressure: 30.15 "Hg

Humidity: 73%

Dew point: 63 °F

Location of RustenburgLocation

Historic Weather in Rustenburg — Graph

°F

Rustenburg temperature yesterday

Maximum temperature yesterday: 88 °F (at 1:00 PM)
Minimum temperature yesterday: 59 °F (at 3:00 AM)
Average temperature yesterday: 74 °F

Past Weeks' High & Low Weather Summary

 TemperatureHumidityPressure
High88 °F (Dec 21, 1:00 PM)100% (Dec 7, 10:00 PM)30.24 "Hg (Dec 7, 10:00 PM)
Low59 °F (Dec 7, 10:00 PM)19% (Dec 21, 6:00 PM)30.01 "Hg (Dec 15, 3:00 PM)
Average69 °F75%30.12 "Hg
* Reported Dec 7 9:00 PM — Dec 22 9:00 PM, Rustenburg, Weather by CustomWeather, © 2014

Note: Actual official high and low records may vary slightly from our data, if they occured in-between our weather recording intervals... More about our weather records

Advertising

Rustenburg weather history for previous 24 hours

 ConditionsComfort  
Time TempWeatherWind HumidityBarometerVisibility
9:00 PM
Dec 22
73 °FClear.No wind65%30.12 "Hg10 mi
8:00 PM73 °FClear.3 mph61%30.12 "Hg10 mi
7:00 PM75 °FClear.2 mph61%30.09 "Hg10 mi
6:00 PM77 °FClear.2 mph57%30.09 "Hg10 mi
5:00 PM79 °FPassing clouds.6 mph54%30.07 "HgN/A
4:00 PM79 °FPassing clouds.5 mph54%30.09 "HgN/A
3:00 PM79 °FPassing clouds.9 mph51%30.12 "HgN/A
2:00 PM79 °FPassing clouds.10 mph54%30.12 "HgN/A
1:00 PM77 °FScattered clouds.12 mph61%30.15 "HgN/A
12:00 PM79 °FPassing clouds.12 mph48%30.15 "HgN/A
11:00 AM81 °FPassing clouds.10 mph42%30.15 "HgN/A
10:00 AM79 °FPassing clouds.9 mph45%30.15 "HgN/A
9:00 AM75 °FPassing clouds.6 mph61%30.18 "HgN/A
8:47 AM75 °FPassing clouds.7 mph61%30.18 "HgN/A
8:00 AM70 °FPassing clouds.3 mph78%30.18 "HgN/A
7:00 AM66 °FPassing clouds.7 mph94%30.15 "HgN/A
6:00 AM64 °FSunny.No wind100%30.15 "Hg10 mi
5:00 AM64 °FMild.3 mph100%30.12 "HgN/A
4:00 AM64 °FMild.5 mph94%30.12 "HgN/A
3:00 AM64 °FMild.6 mph94%30.12 "HgN/A
2:00 AM64 °FMild.7 mph100%30.09 "HgN/A
1:00 AM64 °FMild.3 mph100%30.12 "HgN/A
12:00 AM64 °FMild.14 mph94%30.15 "HgN/A
11:00 PM
Dec 21
72 °FMild.10 mph57%30.12 "HgN/A
10:00 PM73 °FClear.2 mph53%30.09 "Hg10 mi
Weather by CustomWeather, © 2014

See weather overviewHow to use our weather pages